Location: Hanover
(52.3667°N, 9.7167°E)
Time: 04:41:32
(UTC+02:00)

Envisat - Pass Details

Date: 26 September 2024
Orbit: 762 x 764 km, 98.3° (Epoch: 04 October)

Event Time Altitude Azimuth Distance (km) Brightness Sun altitude
Rises 04:09:00 0° 18° (NNE) 3,239 7.1 -27.2°
Reaches altitude 10° 04:11:25 10° 25° (NNE) 2,309 6.3 -26.9°
Maximum altitude 04:16:18 46° 98° (E) 1,019 3.8 -26.3°
Enters shadow 04:18:10 32° 149° (SSE) 1,286 4.1 -26.1°
